{"data":{"norad_id":39166,"epoch":"2026-09-19T09:56:55.948416Z","epoch_age_seconds":108016,"freshness":"FRESH","line1":"1 39166U 13023A   26262.41453644  .00000027  00000+0  00000+0 0  9990","line2":"2 39166  54.4382 265.1277 0142581  51.1509 310.1360  2.00563299 97775","mean_motion":2.00563299,"eccentricity":0.0142581,"inclination_deg":54.4382,"raan_deg":265.1277,"arg_perigee_deg":51.1509,"mean_anomaly_deg":310.136,"bstar":0,"rev_number":9777,"period_min":717.9778190625,"perigee_km":19803.537265573,"apogee_km":20560.938223868,"semimajor_km":26560.37474472,"source":"CELESTRAK","updated_at":"2026-09-20T09:00:46.087751Z"}}